Delta, CO

8:24 AM MDT on March 26, 2017 (GMT -0600)
Delta

Weather History for KAJZ - December, 2013

Change the Weather History Date:

Wednesday, December 18, 2013

  Actual Average (KMTJ) Record (KMTJ)
Temperature  
Mean Temperature 27 °F -  
Max Temperature 39 °F 34 °F 48 °F (1998)
Min Temperature 15 °F 13 °F 1 °F (1996)
Degree Days  
Heating Degree Days 38    
Moisture  
Dew Point 22 °F    
Average Humidity 79    
Maximum Humidity 92    
Minimum Humidity 58    
Precipitation  
Precipitation 0.00 in - - ()
Sea Level Pressure  
Sea Level Pressure 30.15 in    
Wind  
Wind Speed 2 mph (SW)    
Max Wind Speed 7 mph    
Max Gust Speed -    
Visibility 10 miles    
Events      
Averages and records for this station are not official NWS values.
T = Trace of Precipitation, MM = Missing Value Source: NWS Daily Summary

Daily Weather History Graph

Daily Weather History Graph

Search for Another Location

Airport or City:

Trip Planner

Search our weather history database for the weather conditions in past years. The results will help you decide how hot, cold, wet, or windy it might be!

Date:

Astronomy

Dec. 18, 2013 Rise Set
Actual Time 7:25 AM MST 4:52 PM MST
Civil Twilight 6:55 AM MST 5:22 PM MST
Nautical Twilight 6:22 AM MST 5:56 PM MST
Astronomical Twilight 5:49 AM MST 6:28 PM MST
Moon 6:26 PM MST (12/18) 8:07 AM MST (12/18)
Length of Visible Light 10h 27m
Length of Day
9h 27m
Full, 98% of the Moon is Illuminated
Dec 18
Full
Dec 25
Last Quarter
Jan 1
New
Jan 7
First Quarter
Jan 15
Full

Hourly Weather History & Observations

Time (MST) Temp. Windchill Dew Point Humidity Pressure Visibility Wind Dir Wind Speed Gust Speed Precip Events Conditions
12:15 AM 22.3 °F 17.6 °F 19.2 °F 88% 30.36 in 10.0 mi ENE 3.5 mph - N/A   Clear
12:35 AM 21.7 °F 15.5 °F 18.5 °F 87% 30.35 in 10.0 mi NE 4.6 mph - N/A   Clear
12:55 AM 21.2 °F 14.9 °F 18.3 °F 89% 30.33 in 10.0 mi ENE 4.6 mph - N/A   Clear
1:15 AM 22.1 °F 17.4 °F 19.0 °F 88% 30.33 in 10.0 mi NE 3.5 mph - N/A   Clear
1:35 AM 21.2 °F - 18.1 °F 88% 30.33 in 10.0 mi Calm Calm - N/A   Clear
1:55 AM 20.5 °F - 17.8 °F 89% 30.32 in 10.0 mi Calm Calm - N/A   Clear
2:15 AM 20.8 °F 16.0 °F 18.3 °F 90% 30.32 in 10.0 mi NW 3.5 mph - N/A   Clear
2:35 AM 19.8 °F - 17.2 °F 90% 30.32 in 10.0 mi Calm Calm - N/A   Clear
2:55 AM 19.4 °F - 16.7 °F 89% 30.32 in 10.0 mi Calm Calm - N/A   Clear
3:15 AM 19.2 °F - 16.7 °F 90% 30.31 in 10.0 mi Calm Calm - N/A   Clear
3:35 AM 19.0 °F - 16.7 °F 91% 30.30 in 10.0 mi Calm Calm - N/A   Clear
3:55 AM 18.9 °F - 16.5 °F 91% 30.29 in 10.0 mi Calm Calm - N/A   Clear
4:15 AM 20.7 °F - 18.1 °F 90% 30.28 in 10.0 mi Calm Calm - N/A   Clear
4:35 AM 19.6 °F - 16.5 °F 88% 30.27 in 10.0 mi Calm Calm - N/A   Clear
4:55 AM 17.8 °F - 15.3 °F 90% 30.26 in 10.0 mi Calm Calm - N/A   Clear
5:15 AM 17.4 °F - 15.3 °F 91% 30.26 in 10.0 mi Calm Calm - N/A   Clear
5:35 AM 18.3 °F - 16.2 °F 91% 30.26 in 10.0 mi Calm Calm - N/A   Clear
5:55 AM 18.5 °F - 16.5 °F 92% 30.26 in 10.0 mi Calm Calm - N/A   Clear
6:15 AM 16.0 °F - 13.5 °F 90% 30.26 in 10.0 mi Calm Calm - N/A   Clear
6:35 AM 16.7 °F - 14.2 °F 90% 30.25 in 10.0 mi Calm Calm - N/A   Clear
6:55 AM 15.8 °F - 13.5 °F 90% 30.25 in 10.0 mi Calm Calm - N/A   Clear
7:15 AM 17.1 °F - 15.1 °F 92% 30.25 in 10.0 mi Calm Calm - N/A   Clear
7:35 AM 16.7 °F - 14.4 °F 91% 30.26 in 10.0 mi Calm Calm - N/A   Clear
7:55 AM 17.2 °F - 14.9 °F 91% 30.26 in 7.0 mi Calm Calm - N/A   Clear
8:15 AM 19.4 °F - 17.1 °F 91% 30.25 in 10.0 mi Calm Calm - N/A   Clear
8:35 AM 20.3 °F 15.4 °F 18.0 °F 91% 30.25 in 7.0 mi ENE 3.5 mph - N/A   Clear
8:55 AM 21.7 °F - 19.2 °F 90% 30.24 in 10.0 mi Calm Calm - N/A   Clear
9:15 AM 21.7 °F - 18.7 °F 88% 30.24 in 10.0 mi Calm Calm - N/A   Clear
9:35 AM 22.1 °F 17.4 °F 18.7 °F 87% 30.24 in 7.0 mi SW 3.5 mph - N/A   Clear
9:55 AM 24.1 °F - 19.9 °F 84% 30.24 in 10.0 mi Calm Calm - N/A   Clear
10:15 AM 25.3 °F - 20.3 °F 81% 30.24 in 10.0 mi Calm Calm - N/A   Clear
10:35 AM 27.3 °F - 21.0 °F 77% 30.23 in 10.0 mi Calm Calm - N/A   Clear
10:55 AM 28.9 °F - 20.8 °F 72% 30.22 in 10.0 mi Calm Calm - N/A   Clear
11:15 AM 30.2 °F - 21.7 °F 71% 30.21 in 10.0 mi Calm Calm - N/A   Clear
11:35 AM 32.0 °F 28.7 °F 22.5 °F 68% 30.19 in 10.0 mi SW 3.5 mph - N/A   Clear
11:55 AM 33.1 °F 28.7 °F 23.7 °F 68% 30.18 in 10.0 mi SSW 4.6 mph - N/A   Clear
12:15 PM 34.0 °F 29.8 °F 23.7 °F 66% 30.17 in 10.0 mi SW 4.6 mph - N/A   Clear
12:35 PM 35.6 °F 31.7 °F 24.1 °F 63% 30.15 in 10.0 mi SW 4.6 mph - N/A   Clear
12:55 PM 37.0 °F 32.4 °F 25.0 °F 62% 30.13 in 10.0 mi SW 5.8 mph - N/A   Clear
1:15 PM 38.3 °F 35.9 °F 24.8 °F 58% 30.11 in 10.0 mi SW 3.5 mph - N/A   Clear
1:35 PM 38.1 °F 32.9 °F 25.7 °F 61% 30.11 in 10.0 mi SW 6.9 mph - N/A   Clear
1:55 PM 39.2 °F 34.2 °F 26.1 °F 59% 30.09 in 10.0 mi SSW 6.9 mph - N/A   Clear
2:15 PM 38.5 °F 36.1 °F 25.5 °F 60% 30.08 in 10.0 mi SSW 3.5 mph - N/A   Clear
2:35 PM 37.6 °F 35.1 °F 24.8 °F 60% 30.07 in 10.0 mi SW 3.5 mph - N/A   Clear
2:55 PM 37.9 °F - 25.0 °F 60% 30.07 in 10.0 mi Calm Calm - N/A   Clear
3:15 PM 37.6 °F - 24.8 °F 60% 30.07 in 10.0 mi Calm Calm - N/A   Clear
3:35 PM 37.2 °F 32.6 °F 24.6 °F 60% 30.07 in 10.0 mi WSW 5.8 mph - N/A   Clear
3:55 PM 36.7 °F 34.1 °F 24.8 °F 62% 30.07 in 10.0 mi WSW 3.5 mph - N/A   Clear
4:15 PM 36.1 °F - 25.5 °F 65% 30.06 in 10.0 mi Calm Calm - N/A   Scattered Clouds
4:35 PM 35.6 °F - 25.0 °F 65% 30.06 in 10.0 mi Calm Calm - N/A   Scattered Clouds
4:55 PM 34.5 °F - 25.3 °F 69% 30.06 in 10.0 mi Calm Calm - N/A   Scattered Clouds
5:15 PM 34.0 °F 29.8 °F 25.3 °F 71% 30.06 in 10.0 mi SSW 4.6 mph - N/A   Overcast
5:35 PM 33.4 °F - 25.2 °F 72% 30.07 in 10.0 mi Calm Calm - N/A   Overcast
5:55 PM 33.4 °F - 25.3 °F 72% 30.07 in 10.0 mi Calm Calm - N/A   Overcast
6:15 PM 32.9 °F 27.5 °F 25.7 °F 75% 30.06 in 10.0 mi North 5.8 mph - N/A   Overcast
6:35 PM 33.1 °F 30.0 °F 26.1 °F 75% 30.05 in 10.0 mi ENE 3.5 mph - N/A   Overcast
6:55 PM 33.1 °F 30.0 °F 26.2 °F 76% 30.04 in 10.0 mi NE 3.5 mph - N/A   Scattered Clouds
7:15 PM 32.9 °F - 26.1 °F 76% 30.03 in 10.0 mi Calm Calm - N/A   Scattered Clouds
7:35 PM 32.5 °F - 26.4 °F 78% 30.00 in 10.0 mi Calm Calm - N/A   Overcast
7:55 PM 32.0 °F 28.7 °F 26.6 °F 80% 30.00 in 10.0 mi SW 3.5 mph - N/A   Overcast
8:15 PM 32.0 °F - 26.4 °F 80% 29.99 in 10.0 mi Calm Calm - N/A   Overcast
8:35 PM 32.0 °F 28.7 °F 26.1 °F 79% 29.98 in 10.0 mi WNW 3.5 mph - N/A   Mostly Cloudy
8:55 PM 32.2 °F - 26.2 °F 79% 29.97 in 10.0 mi Calm Calm - N/A   Mostly Cloudy
9:15 PM 32.5 °F - 25.9 °F 76% 29.95 in 10.0 mi Calm Calm - N/A   Mostly Cloudy
9:35 PM 32.0 °F - 26.4 °F 80% 29.94 in 10.0 mi Calm Calm - N/A   Scattered Clouds
9:55 PM 32.0 °F 28.7 °F 25.9 °F 78% 29.93 in 10.0 mi East 3.5 mph - N/A   Scattered Clouds
10:15 PM 29.8 °F 26.3 °F 25.3 °F 83% 29.94 in 10.0 mi SSE 3.5 mph - N/A   Scattered Clouds
10:35 PM 29.3 °F 25.6 °F 25.2 °F 85% 29.93 in 10.0 mi NW 3.5 mph - N/A   Scattered Clouds
10:55 PM 29.7 °F 24.7 °F 25.2 °F 83% 29.92 in 10.0 mi NNE 4.6 mph - N/A   Scattered Clouds
11:15 PM 30.0 °F 23.2 °F 25.3 °F 83% 29.90 in 10.0 mi ENE 6.9 mph - N/A   Overcast
11:35 PM 30.2 °F 26.7 °F 24.8 °F 80% 29.89 in 10.0 mi NE 3.5 mph - N/A   Mostly Cloudy
11:55 PM 29.7 °F - 24.6 °F 81% 29.88 in 10.0 mi Calm Calm - N/A   Scattered Clouds